RH
70 86 90 87 85 87 88 87 86 86 86 85 81 80 81 81 82 84 83 83 83 80 78 75 74 76 78 80 82 83 85 85 85 86 86 84 79 77 76 80 80 74 78
69 82 89 87 87 88 88 88 88 87 87 86 82 79 79 81 82 82 82 82 81 79 76 76 77 77 78 80 82 83 83 84 83 83 84 88 85 79 78 84 84 79 79
71 77 83 88 89 88 88 89 89 88 87 86 84 83 81 81 82 82 83 82 80 79 78 78 79 79 81 82 85 84 82 84 84 77 80 82 82 80 79 83 82 80 77
65 75 80 89 90 90 91 90 88 87 88 87 86 85 84 83 82 81 83 83 82 82 82 82 84 85 85 87 86 84 82 82 79 76 64 67 72 78 74 78 77 76 77
62 70 77 88 90 90 91 88 88 87 88 88 88 87 86 84 81 82 84 86 88 88 87 87 86 88 88 87 83 81 79 79 77 70 67 71 80 74 70 77 76 76 78
60 66 90 89 90 89 88 88 87 88 88 89 89 88 87 85 83 86 90 90 90 89 88 87 87 89 88 87 84 81 78 77 69 62 72 77 79 76 75 78 79 78 79
58 83 84 90 88 87 87 87 88 89 89 90 89 88 86 86 86 88 91 91 90 88 87 86 84 85 88 87 83 82 79 80 62 67 74 83 77 76 76 78 79 77 77
79 80 80 90 90 89 88 88 90 89 90 89 88 88 88 88 90 91 90 90 89 88 88 87 85 86 87 86 84 85 84 81 76 83 85 84 78 75 78 80 81 78 77
80 83 81 84 86 92 91 92 90 90 90 90 89 90 89 88 90 90 90 90 90 89 89 88 86 85 88 87 88 89 90 86 84 89 82 86 78 73 78 81 81 79 77
84 85 81 79 80 82 90 94 94 94 93 93 93 94 92 92 92 92 92 91 91 91 90 89 88 89 89 87 87 89 88 91 86 90 93 91 76 73 77 78 79 79 77
88 86 78 78 75 79 89 95 96 97 97 95 93 93 89 86 89 91 94 93 92 91 90 91 91 90 90 90 90 88 88 87 88 89 95 88 76 75 77 79 79 79 79
92 90 80 74 75 80 85 93 96 96 94 90 89 83 83 91 91 93 94 93 91 91 89 85 83 82 82 83 86 85 94 92 89 92 94 88 80 76 79 80 81 80 79
86 88 81 70 73 82 86 89 96 94 90 89 94 94 95 93 92 95 96 90 92 87 75 74 76 74 80 80 77 79 81 90 87 89 95 92 79 77 80 81 82 80 77
91 86 81 74 74 79 79 87 91 90 88 94 95 94 94 96 94 92 89 92 87 83 80 75 75 74 72 75 75 78 83 80 82 90 93 96 88 82 75 78 79 76 74
89 87 84 77 77 79 80 85 88 85 92 96 95 91 92 93 89 86 86 88 85 80 74 76 77 75 74 71 72 72 70 75 77 81 92 93 94 88 86 87 85 79 74
82 87 84 80 82 80 81 84 86 87 91 94 96 93 86 83 88 83 90 86 90 73 75 80 77 74 71 70 71 72 73 74 76 77 81 91 91 96 91 90 90 87 83
78 83 85 84 84 87 84 86 87 90 86 93 93 88 86 78 79 80 88 80 79 76 77 76 76 70 74 69 70 66 68 70 72 72 74 78 89 94 96 90 91 90 88
80 86 86 89 90 89 91 90 92 89 89 92 93 90 82 80 81 80 78 81 78 79 76 71 71 77 72 71 70 69 68 72 70 70 71 76 82 94 98 96 94 91 88
83 87 91 92 94 92 92 94 92 92 92 89 94 91 79 80 76 75 80 81 84 81 74 69 77 77 71 68 64 65 67 71 71 68 71 75 79 88 95 96 98 96 94
84 87 90 93 94 95 95 95 96 96 94 91 91 88 83 77 79 80 81 85 83 80 77 80 78 75 67 63 56 59 58 60 64 68 72 76 79 84 90 89 94 94 88
90 91 94 97 97 97 98 98 98 98 97 94 92 84 80 82 83 84 85 83 79 82 83 77 74 71 70 65 69 67 67 63 56 60 66 79 84 75 77 85 85 92 90
85 88 96 97 97 94 94 92 94 96 95 92 90 85 86 78 86 83 84 82 89 84 83 77 72 81 79 71 80 78 86 72 60 58 63 70 77 75 75 73 75 77 82
92 92 95 96 96 94 93 96 98 99 99 99 96 94 87 74 86 83 87 86 87 81 81 77 75 80 86 90 82 86 93 92 70 63 64 68 74 78 77 77 75 76 80
92 96 92 97 94 97 98 98 97 97 97 98 94 92 90 78 88 88 89 89 85 83 79 78 79 86 83 88 79 64 76 75 83 78 62 67 68 70 73 76 76 75 78
89 96 96 96 97 98 97 97 96 96 94 97 96 95 93 85 90 90 90 90 89 81 80 75 82 85 84 88 83 80 74 82 78 80 84 72 66 69 69 72 75 77 77
91 97 97 96 97 98 96 96 95 96 98 98 98 98 96 88 88 92 90 92 90 85 82 84 84 84 84 82 77 72 73 72 75 77 80 79 68 64 66 65 71 76 79
Wind_Speed
13 15 18 17 15 18 17 16 15 15 14 14 15 15 16 15 15 14 14 15 16 17 19 20 20 20 20 21 21 22 21 21 21 20 18 18 20 19 19 19 17 15 20
20 17 19 18 16 18 17 16 15 13 15 14 14 15 16 14 15 15 15 15 16 18 19 20 20 19 20 21 21 20 20 19 19 18 16 15 17 19 20 18 18 17 21
19 17 16 18 17 18 17 17 15 14 13 15 14 15 15 15 15 15 15 16 17 19 20 19 20 20 19 18 16 16 16 14 13 18 14 9 11 18 19 17 19 20 22
18 17 16 18 18 17 18 17 16 16 15 14 13 13 15 15 15 15 16 17 18 19 20 20 20 19 18 15 12 13 11 9 12 13 9 8 11 18 18 19 20 21 22
17 16 15 18 18 18 18 17 14 15 15 14 14 13 13 15 16 17 18 18 18 19 20 20 19 18 17 12 11 10 8 7 14 9 8 8 6 15 18 18 18 21 20
17 15 18 17 18 18 17 16 15 15 15 15 14 14 14 15 16 18 19 18 19 19 20 19 19 18 15 13 13 11 9 5 8 11 9 11 7 18 18 17 17 19 20
16 16 15 17 17 17 16 15 17 17 15 15 15 15 16 17 19 19 20 19 20 20 20 19 19 19 17 14 13 12 14 17 12 10 8 6 7 17 18 16 17 19 21
18 17 15 14 16 15 13 15 16 16 15 15 16 16 17 20 21 21 20 20 20 20 20 20 20 19 16 16 17 18 15 15 12 10 7 6 11 16 18 17 17 20 20
17 16 14 12 13 15 12 14 15 15 14 15 16 16 19 22 22 21 20 20 21 21 20 21 19 19 18 19 21 21 19 14 9 6 6 4 12 15 17 17 18 19 21
14 14 15 12 11 12 12 14 13 13 13 14 11 12 13 14 19 19 18 20 22 22 21 21 20 19 19 19 21 21 18 19 10 8 5 5 14 15 16 16 17 19 21
10 13 14 13 11 11 11 11 13 13 13 15 15 18 13 10 13 14 18 21 21 22 22 21 20 20 19 19 19 17 15 7 10 7 5 9 14 16 15 18 17 18 19
13 13 13 14 13 11 10 11 10 10 8 9 12 11 8 9 11 12 15 20 20 19 19 20 20 18 13 7 6 13 5 7 8 7 6 10 13 15 15 18 18 18 18
14 10 14 15 14 12 11 9 6 5 6 8 8 10 12 10 9 7 7 7 8 9 7 8 8 6 8 6 7 8 8 8 6 6 12 13 13 14 13 15 17 18 18
14 15 15 14 14 13 10 8 9 7 7 7 9 12 10 7 9 8 5 5 5 4 7 8 6 8 10 9 8 8 8 7 5 5 10 17 12 14 10 11 15 18 18
15 16 16 14 14 13 13 9 9 9 7 9 9 10 10 9 8 7 5 4 4 6 8 8 7 7 8 10 10 11 10 9 7 5 4 17 18 12 12 10 12 17 19
15 15 15 15 13 14 12 13 9 9 11 9 7 8 12 8 8 6 5 5 4 8 8 6 6 8 9 8 10 10 9 8 9 10 6 6 17 15 7 11 12 16 17
16 16 15 14 14 13 12 12 10 9 10 10 8 9 8 10 9 9 5 6 5 9 11 7 5 10 10 9 11 10 8 10 10 10 8 7 9 17 6 12 14 17 18
14 17 15 13 14 15 13 11 9 10 9 9 7 6 10 11 10 7 7 6 8 8 7 7 7 9 9 8 8 7 7 9 10 10 9 9 8 7 13 14 16 20 22
12 17 15 15 16 15 15 11 12 11 9 8 7 5 8 12 11 8 7 8 8 7 7 8 6 9 9 8 9 7 8 8 9 8 11 12 11 10 8 19 20 19 21
9 15 16 14 16 15 12 11 9 9 7 8 8 6 8 9 9 8 8 9 7 7 7 8 10 8 9 9 10 9 8 8 7 8 9 9 10 11 11 12 10 12 19
8 13 16 14 16 13 12 12 10 11 10 8 6 10 10 8 9 10 9 10 8 8 8 10 11 13 7 9 8 8 8 8 9 8 7 7 10 11 12 10 8 7 8
13 14 15 14 17 14 11 12 9 10 8 9 8 8 6 10 8 10 12 10 7 8 8 10 12 7 4 6 4 4 4 3 7 8 7 8 9 7 10 10 10 10 7
10 14 14 15 16 15 13 8 7 7 7 4 8 7 6 11 8 10 9 8 8 8 9 10 10 9 7 3 3 4 4 4 3 3 6 6 7 6 6 7 9 9 8
8 11 14 13 17 13 13 12 20 12 13 8 9 7 7 11 8 8 8 7 9 7 9 9 7 4 6 6 3 2 3 7 5 3 2 4 5 6 6 5 6 7 6
10 11 12 16 15 14 17 15 13 12 11 9 9 11 7 9 8 8 8 8 8 7 9 11 9 6 4 4 4 3 3 2 5 5 4 3 3 3 4 4 4 4 5
9 12 12 16 14 14 16 15 15 13 12 13 11 11 7 9 8 7 8 7 7 8 10 7 7 8 6 5 4 4 4 4 4 5 5 3 4 2 3 3 3 3 3
Wind_Direction
147 143 153 147 143 138 139 139 136 132 129 123 120 119 116 112 108 105 104 103 110 110 108 105 99 94 90 87 85 85 86 85 83 76 67 67 71 78 80 80 78 79 80
135 144 150 148 142 139 141 138 131 134 130 124 124 124 119 116 113 112 111 110 114 112 107 104 101 98 94 93 93 96 98 98 95 88 75 64 72 76 77 79 84 84 82
134 144 149 148 143 143 141 137 137 135 132 131 131 128 125 120 115 114 116 114 116 113 109 105 101 98 96 97 99 104 108 111 103 93 82 76 82 85 84 84 87 87 88
137 144 150 149 143 142 141 139 143 142 136 130 130 130 127 120 117 117 116 113 113 110 107 102 98 96 94 94 96 102 99 97 83 83 90 77 87 89 87 91 89 87 83
139 148 147 149 144 145 143 142 141 137 138 136 134 131 126 122 122 119 114 109 106 106 105 99 97 93 90 88 93 84 67 73 97 86 76 78 74 87 90 84 88 91 90
142 147 142 150 144 147 146 144 144 137 140 137 138 134 129 126 122 119 112 105 106 103 99 100 96 91 84 71 53 40 36 29 86 75 69 73 75 86 89 93 98 97 93
141 130 142 150 148 146 146 146 143 140 138 138 137 134 131 125 119 114 106 109 106 104 102 99 98 93 80 69 53 45 64 69 80 72 71 62 87 89 89 89 95 100 93
129 140 143 148 148 146 145 141 138 136 139 140 139 136 129 123 119 113 112 110 109 107 105 102 99 91 78 70 60 52 51 71 75 74 73 67 84 89 88 87 92 102 96
134 134 144 153 152 145 142 133 133 135 138 138 140 138 141 129 121 115 114 112 107 104 102 97 97 95 77 67 60 56 50 73 73 61 73 80 89 94 91 89 96 99 96
130 137 146 155 158 147 140 127 127 128 129 129 136 122 111 112 114 108 103 104 104 101 98 98 97 92 73 65 65 60 55 50 47 50 45 76 98 97 93 93 95 99 97
132 143 149 156 159 150 135 129 120 118 115 110 111 117 114 115 107 97 99 96 96 98 101 102 99 88 76 63 59 62 63 58 59 37 19 89 98 91 91 94 97 94 96
154 156 157 161 160 149 134 136 130 128 128 124 130 130 120 103 103 100 95 100 98 105 112 112 104 89 74 63 49 57 49 58 61 42 16 68 90 95 97 96 99 98 95
159 156 166 166 157 144 144 140 136 138 134 128 104 104 107 110 107 104 100 97 112 118 111 78 60 67 86 82 66 67 55 54 49 46 21 44 75 90 99 104 103 99 99
161 170 168 167 155 145 148 147 146 141 138 119 121 126 121 118 120 121 126 140 146 151 94 88 78 73 64 60 63 61 66 61 48 45 32 31 64 78 97 122 118 107 106
174 175 170 169 157 153 151 149 149 142 124 127 129 130 127 132 130 133 134 128 113 96 99 94 90 83 76 67 57 53 53 53 49 53 22 27 41 60 83 82 111 112 114
182 176 167 172 156 156 153 149 144 130 128 131 123 140 138 130 130 131 120 113 104 98 95 89 105 101 84 70 62 64 56 50 45 48 32 17 28 31 109 130 136 117 113
189 169 172 160 156 139 143 132 141 135 134 135 139 154 128 130 135 136 133 133 106 96 104 107 102 92 89 83 73 60 51 50 47 42 34 29 12 17 60 159 129 121 118
172 170 162 156 149 147 137 144 133 145 136 137 138 137 138 132 137 147 127 111 109 111 120 116 102 99 88 81 73 55 51 51 47 38 37 38 23 24 44 97 119 119 118
170 169 156 164 148 153 140 138 135 137 137 133 130 145 128 139 154 138 124 117 114 124 127 116 95 104 104 93 83 62 53 51 44 36 37 34 29 40 40 52 76 83 93
179 171 158 166 160 150 148 135 124 133 133 139 138 158 149 149 141 129 122 127 132 148 132 125 126 105 109 108 90 68 51 50 47 41 37 31 28 39 42 46 52 57 73
185 160 163 169 159 144 153 145 142 151 146 140 138 150 154 147 141 127 137 145 161 139 137 131 122 121 109 129 103 79 59 44 49 40 37 40 30 38 43 40 46 53 46
184 175 173 170 160 158 163 160 158 151 150 138 141 145 151 151 137 140 153 158 140 138 134 137 141 137 116 195 122 123 102 33 36 33 34 35 35 31 38 36 39 51 54
172 175 178 161 169 160 166 146 120 112 98 108 143 150 165 153 142 146 153 152 144 147 146 147 151 149 154 196 158 130 133 145 131 6 38 45 38 38 31 29 37 38 47
183 164 171 169 169 166 150 151 159 157 157 170 163 159 155 153 145 147 151 149 149 146 149 153 158 161 137 150 87 45 76 133 143 133 68 55 53 51 39 27 27 33 34
165 176 164 174 166 164 158 172 173 168 165 150 154 154 151 150 146 150 158 152 148 151 154 161 161 153 144 133 133 141 93 92 119 133 149 149 89 62 53 45 34 29 37
166 166 171 173 178 168 165 170 172 176 164 155 157 159 164 159 158 160 161 152 151 151 163 160 160 152 154 129 132 142 155 153 165 137 119 135 129 130 117 93 68 50 53